Weather History for Doha International Airport, Qatar

Change the Weather History Date:

Sunday, November 4, 2012

  Actual Average Record
Temperature  
Mean Temperature 83 °F -  
Max Temperature 87 °F 84 °F - ()
Min Temperature 79 °F 66 °F - ()
Cooling Degree Days 18    
Growing Degree Days 33 (Base 50)    
Moisture  
Dew Point 66 °F    
Average Humidity 57    
Maximum Humidity 66    
Minimum Humidity 40    
Precipitation  
Precipitation 0.00 in 0.01 in - ()
Sea Level Pressure  
Sea Level Pressure 29.97 in    
Wind  
Wind Speed 5 mph ()    
Max Wind Speed 10 mph    
Max Gust Speed -    
Visibility 6.3 miles    
Events      
T = Trace of Precipitation, MM = Missing Value Source: Averaged Metar Reports

Daily Weather History Graph

Daily Weather History Graph

Search for Another Location

Airport:

Trip Planner

Search our weather history database for the weather conditions in past years. The results will help you decide how hot, cold, wet, or windy it might be!

Date:

Astronomy

Nov. 04, 2012 Rise Set
Actual Time 5:43 AM AST 4:50 PM AST
Civil Twilight 5:19 AM AST 5:14 PM AST
Nautical Twilight 4:52 AM AST 5:41 PM AST
Astronomical Twilight 4:25 AM AST 6:08 PM AST
Moon 9:12 PM AST (11/4) 10:04 AM AST (11/4)
Length of Visible Light 11h 54m
Length of Day
11h 07m
Waning Gibbous, 75% of the Moon is Illuminated
Nov 4
Waning Gibbous
Nov 7
Last Quarter
Nov 14
New
Nov 20
First Quarter
Nov 28
Full

Hourly Weather History & Observations

Time (AST) Temp. Heat Index Dew Point Humidity Pressure Visibility Wind Dir Wind Speed Gust Speed Precip Events Conditions
12:00 AM 80.6 °F 82.7 °F 66.2 °F 61% 29.95 in 6.2 mi NNW 5.8 mph - N/A   Partly Cloudy
12:30 AM 80.6 °F 82.7 °F 66.2 °F 61% 29.95 in 6.2 mi NNW 6.9 mph - N/A   Partly Cloudy
1:00 AM 80.6 °F 82.7 °F 66.2 °F 61% 29.95 in 6.2 mi NNW 6.9 mph - N/A   Partly Cloudy
1:30 AM 80.6 °F 82.7 °F 66.2 °F 61% 29.95 in 6.2 mi NNW 6.9 mph - N/A   Partly Cloudy
2:00 AM 80.6 °F 82.7 °F 66.2 °F 61% 29.95 in 6.2 mi NNW 4.6 mph - N/A   Partly Cloudy
2:30 AM 80.6 °F 82.7 °F 66.2 °F 61% 29.95 in 6.2 mi WNW 4.6 mph - N/A   Partly Cloudy
3:00 AM 80 °F - 66 °F 53% 29.96 in 6 mi NW 4.6 mph - -   Scattered Clouds
3:00 AM 80.6 °F 82.7 °F 66.2 °F 61% 29.95 in 6.2 mi NW 4.6 mph - N/A   Partly Cloudy
3:30 AM 80.6 °F 82.7 °F 66.2 °F 61% 29.95 in 6.2 mi NW 3.5 mph - N/A   Partly Cloudy
4:00 AM 80.6 °F 82.7 °F 66.2 °F 61% 29.95 in 6.2 mi Variable 2.3 mph - N/A   Partly Cloudy
4:30 AM 80.6 °F 82.7 °F 66.2 °F 61% 29.95 in 6.2 mi NW 3.5 mph - N/A   Partly Cloudy
5:00 AM 80.6 °F 82.7 °F 66.2 °F 61% 29.98 in 6.2 mi NNW 3.5 mph - N/A   Partly Cloudy
5:30 AM 80.6 °F 82.7 °F 66.2 °F 61% 29.98 in 6.2 mi NNW 3.5 mph - N/A   Partly Cloudy
6:00 AM 80.6 °F 82.7 °F 66.2 °F 61% 29.98 in 6.2 mi Variable 2.3 mph - N/A   Partly Cloudy
6:30 AM 80.6 °F 82.7 °F 66.2 °F 61% 29.98 in 6.2 mi NW 3.5 mph - N/A   Partly Cloudy
7:00 AM 82.4 °F 84.6 °F 66.2 °F 58% 30.01 in 6.2 mi NW 3.5 mph - N/A   Partly Cloudy
7:30 AM 82.4 °F 84.6 °F 66.2 °F 58% 30.01 in 6.2 mi Variable 2.3 mph - N/A   Scattered Clouds
8:00 AM 82.4 °F 84.6 °F 66.2 °F 58% 30.01 in 6.2 mi North 4.6 mph - N/A   Scattered Clouds
8:30 AM 84.2 °F 85.6 °F 64.4 °F 51% 30.01 in 6.2 mi North 5.8 mph - N/A   Scattered Clouds
9:00 AM 85 °F - 64 °F 40% 30.03 in 9 mi North 6.9 mph - -   Scattered Clouds
9:00 AM 84.2 °F 85.6 °F 64.4 °F 51% 30.01 in 6.2 mi North 6.9 mph - N/A   Scattered Clouds
9:30 AM 86.0 °F 87.3 °F 64.4 °F 48% 30.01 in 6.2 mi NNE 6.9 mph - N/A   Scattered Clouds
10:00 AM 86.0 °F 87.3 °F 64.4 °F 48% 30.01 in 6.2 mi NNE 5.8 mph - N/A   Scattered Clouds
10:30 AM 86.0 °F 87.3 °F 64.4 °F 48% 30.01 in 6.2 mi NNE 5.8 mph - N/A   Partly Cloudy
11:00 AM 86.0 °F 87.3 °F 64.4 °F 48% 29.98 in 6.2 mi NNE 5.8 mph - N/A   Partly Cloudy
11:30 AM 86.0 °F 88.2 °F 66.2 °F 51% 29.98 in 6.2 mi NNE 6.9 mph - N/A   Partly Cloudy
12:00 PM 87.8 °F 89.4 °F 64.4 °F 46% 29.95 in 6.2 mi North 8.1 mph - N/A   Partly Cloudy
12:30 PM 87.8 °F 90.4 °F 66.2 °F 49% 29.95 in 6.2 mi ENE 8.1 mph - N/A   Partly Cloudy
1:30 PM 86.0 °F 88.2 °F 66.2 °F 51% 29.95 in 6.2 mi NNE 10.4 mph - N/A   Partly Cloudy
2:00 PM 86.0 °F 87.3 °F 64.4 °F 48% 29.95 in 6.2 mi NE 10.4 mph - N/A   Partly Cloudy
2:30 PM 86.0 °F 88.2 °F 66.2 °F 51% 29.95 in 6.2 mi NE 9.2 mph - N/A   Partly Cloudy
3:00 PM 86 °F - 67 °F 43% 29.95 in 9 mi NNE 9.2 mph - -   Scattered Clouds
3:00 PM 86.0 °F 88.2 °F 66.2 °F 51% 29.95 in 6.2 mi NNE 9.2 mph - N/A   Partly Cloudy
6:30 PM 82.4 °F 85.4 °F 68.0 °F 62% 29.98 in 6.2 mi NNE 4.6 mph - N/A   Partly Cloudy
7:00 PM 82.4 °F 86.3 °F 69.8 °F 66% 29.98 in 6.2 mi North 5.8 mph - N/A   Partly Cloudy
8:00 PM 82.4 °F 86.3 °F 69.8 °F 66% 29.98 in 6.2 mi NNW 9.2 mph - N/A   Partly Cloudy
8:30 PM 80.6 °F 83.2 °F 68.0 °F 65% 29.98 in 6.2 mi NNW 9.2 mph - N/A   Partly Cloudy
9:00 PM 81 °F - 68 °F 56% 29.99 in 7 mi NNW 9.2 mph - -   Scattered Clouds
9:00 PM 80.6 °F 83.2 °F 68.0 °F 65% 29.98 in 6.2 mi NNW 9.2 mph - N/A   Partly Cloudy
9:30 PM 82.4 °F 83.9 °F 64.4 °F 54% 29.98 in 6.2 mi NNW 6.9 mph - N/A   Partly Cloudy
10:00 PM 80.6 °F 82.7 °F 66.2 °F 61% 29.98 in 6.2 mi NNW 5.8 mph - N/A   Partly Cloudy
10:30 PM 80.6 °F 82.7 °F 66.2 °F 61% 29.98 in 6.2 mi NNW 5.8 mph - N/A   Partly Cloudy
11:00 PM 80.6 °F 82.7 °F 66.2 °F 61% 29.98 in 6.2 mi NNW 5.8 mph - N/A   Partly Cloudy
11:30 PM 80.6 °F 83.2 °F 68.0 °F 65% 29.98 in - Variable 2.3 mph - N/A   Clear